Location: Anaheim
(33.8350°N, 117.9140°W)
Time: 00:15:56
(UTC-07:00)

Amateur Radio Satellites - All Passes

Search period start: 17 April 2015 23:45
Search period end: 18 April 2015 23:45
Location: Anaheim, 33.8350°N, 117.9140°W

Satellite Date Start Highest point End Downlink Frequencies (MHz)
Time Altitude Azimuth
PHONESAT 2.4 17 Apr 23:48:45 23:51:50 26° 359° (N) 23:54:55 2401.200-2431.200
UKube-1 17 Apr 23:49:51 23:51:17 11° 269° (W) 23:52:26 .
QB50P1 17 Apr 23:52:22 23:56:39 76° 102° (ESE) 00:00:56 145.935-145.965
Cosmos 2491 17 Apr 23:53:01 00:01:43 83° 95° (E) 00:10:29 435.465 / 435.565
CUBEBUG 1 17 Apr 23:54:25 23:58:38 48° 260° (W) 00:02:50 437.445
SPROUT 18 Apr 00:13:09 00:17:21 63° 76° (ENE) 00:21:36 437.525
YUBILEINY 18 Apr 00:13:12 00:21:25 45° 270° (W) 00:29:26 435.215
BUGSAT 1 18 Apr 00:15:08 00:19:15 83° 282° (WNW) 00:23:24 437.445
QB50P2 18 Apr 00:15:19 00:19:30 54° 285° (WNW) 00:23:41 145.880/145.840
TISAT 1 18 Apr 00:16:11 00:20:15 53° 75° (ENE) 00:24:20 437.305
TIGRISAT 18 Apr 00:29:32 00:33:10 22° 290° (WNW) 00:36:39 435.000
UNISAT 6 18 Apr 00:29:49 00:33:23 21° 290° (WNW) 00:36:49 437.425
POPSAT HIP 1 18 Apr 00:39:13 00:42:58 29° 288° (WNW) 00:46:38 437.405
NANOSAT C BR1 18 Apr 00:40:07 00:43:48 28° 288° (WNW) 00:47:26 145.865
SO-50 18 Apr 00:40:09 00:42:32 13° 252° (WSW) 00:44:36 436.795
Cosmos 2504 18 Apr 00:41:29 00:47:42 24° 69° (ENE) 00:53:52 435.465 / 435.565
VERMONT LUNAR 18 Apr 00:46:34 00:49:51 49° 19° (NNE) 00:53:06 437.305
O/OREOS (USA 219) 18 Apr 00:52:31 00:56:28 27° 297° (WNW) 01:00:20 437.305
ITUPSAT 1 18 Apr 01:01:57 01:05:52 26° 71° (ENE) 01:09:53 437.325
POLYITAN 1 18 Apr 01:05:55 01:08:27 15° 291° (WNW) 01:10:49 437.675
RS-15 18 Apr 01:16:59 01:28:38 77° 60° (ENE) 01:40:47 29.354- 29.394
DUCHIFAT 1 18 Apr 01:18:56 01:20:19 11° 292° (WNW) 01:21:27 145.980
PHONESAT 2.4 18 Apr 01:27:12 01:30:36 42° 16° (NNE) 01:34:00 2401.200-2431.200
AIST 1 18 Apr 01:31:06 01:35:15 45° 93° (E) 01:39:24
BEESAT 18 Apr 01:37:31 01:42:16 66° 75° (ENE) 01:47:02 436.000
SWISSCUBE 18 Apr 01:38:29 01:43:16 74° 76° (ENE) 01:48:04 437.505
Cosmos 2491 18 Apr 01:54:15 01:59:49 17° 295° (WNW) 02:04:51 435.465 / 435.565
STARS 18 Apr 01:59:49 02:00:06 10° 67° (ENE) 02:00:41 437.465
Gurwin Techsat 1B 18 Apr 02:02:18 02:03:38 11° 89° (E) 02:05:21 435.225
Oscar 19 18 Apr 02:04:46 02:09:53 55° 100° (E) 02:14:58 437.125/150
KKS-1 18 Apr 02:16:58 02:20:41 28° 72° (ENE) 02:24:31 437.445
ITAMSAT 1 18 Apr 02:21:03 02:24:56 22° 94° (E) 02:28:58 435.822/435.867
VERMONT LUNAR 18 Apr 02:24:20 02:27:18 29° 213° (SSW) 02:30:14 437.305
Cosmos 2504 18 Apr 02:33:45 02:41:44 56° 269° (W) 02:49:04 435.465 / 435.565
ITUPSAT 1 18 Apr 02:39:37 02:43:42 27° 264° (W) 02:47:42 437.325
PHONESAT 2.4 18 Apr 03:05:31 03:08:54 42° 211° (SSW) 03:12:14 2401.200-2431.200
AIST 1 18 Apr 03:11:38 03:13:15 11° 289° (WNW) 03:14:34
RS-15 18 Apr 03:31:09 03:40:18 25° 255° (WSW) 03:49:01 29.354- 29.394
STARS 18 Apr 03:31:48 03:36:07 61° 259° (W) 03:40:28 437.465
Gurwin Techsat 1B 18 Apr 03:38:54 03:44:12 70° 285° (WNW) 03:49:28 435.225
JUGNU 18 Apr 03:43:09 03:44:45 11° 165° (SSE) 03:46:29 437.505
Oscar 19 18 Apr 03:45:44 03:48:49 15° 293° (WNW) 03:51:39 437.125/150
KKS-1 18 Apr 03:53:57 03:57:21 21° 266° (W) 04:00:39 437.445
ITAMSAT 1 18 Apr 03:59:50 04:04:33 36° 289° (WNW) 04:09:12 435.822/435.867
BEESAT 2 18 Apr 04:29:06 04:32:55 41° 114° (ESE) 04:36:51 435.950
HORYU 2 18 Apr 04:30:20 04:34:51 86° 102° (ESE) 04:39:21 437.375
AO-7 18 Apr 04:30:47 04:38:45 49° 101° (E) 04:46:47 29.400- 29.500
GONETS M04 18 Apr 04:33:43 04:42:24 58° 79° (E) 04:51:04
BEESAT 3 18 Apr 04:38:29 04:42:30 67° 117° (ESE) 04:46:36 437.485
AIST 2 18 Apr 04:38:42 04:41:08 15° 110° (ESE) 04:43:46 435.215
DANDE 18 Apr 04:42:23 04:48:02 28° 75° (ENE) 04:54:49 436.750
JAS-2 18 Apr 04:46:20 04:52:57 64° 100° (E) 04:58:45 435.910
M-CUBED/EXP-1 PRIME 18 Apr 04:49:17 04:52:02 16° 63° (ENE) 04:55:02 437.505
MOZHAYETS 4 18 Apr 04:54:06 04:58:45 88° 254° (WSW) 05:03:26
CUSAT 1 18 Apr 04:58:07 05:04:49 46° 78° (ENE) 05:12:41 437.405
SRMSAT 18 Apr 05:24:28 05:26:16 11° 165° (SSE) 05:28:10 437.500
JUGNU 18 Apr 05:29:10 05:33:06 19° 174° (S) 05:37:03 437.505
Cosmos 2499 18 Apr 05:29:11 05:34:05 18° 66° (ENE) 05:39:11 435.465 / 435.565
AUBIESAT-1 18 Apr 05:37:44 05:42:07 46° 69° (ENE) 05:46:43 437.475
CUTE-I 18 Apr 05:49:33 05:50:25 11° 89° (E) 05:51:45 437.470
Cubesat XI-IV 18 Apr 05:55:19 05:57:34 13° 90° (E) 06:00:10 437.490
STRAND 1 18 Apr 06:05:13 06:08:49 20° 68° (ENE) 06:12:35 437.568
CUBESAT XI-V 18 Apr 06:07:07 06:11:26 39° 73° (ENE) 06:15:46 437.345
BEESAT 2 18 Apr 06:08:39 06:11:17 16° 311° (NW) 06:13:48 435.950
AIST 2 18 Apr 06:15:26 06:19:26 39° 303° (WNW) 06:23:28 435.215
BEESAT 3 18 Apr 06:19:59 06:21:03 11° 314° (NW) 06:21:56 437.485
M-CUBED/EXP-1 PRIME 18 Apr 06:22:01 06:26:28 50° 257° (WSW) 06:31:08 437.505
AO-7 18 Apr 06:24:05 06:31:18 33° 296° (WNW) 06:38:20 29.400- 29.500
DANDE 18 Apr 06:24:43 06:31:25 53° 265° (W) 06:39:23 436.750
GONETS M04 18 Apr 06:31:43 06:38:44 26° 275° (W) 06:45:23
JAS-2 18 Apr 06:32:58 06:37:18 18° 298° (WNW) 06:41:06 435.910
CUSAT 1 18 Apr 06:41:12 06:47:31 32° 268° (W) 06:54:25 437.405
PRISM 18 Apr 07:04:11 07:08:21 63° 259° (WSW) 07:12:30 437.425
SRMSAT 18 Apr 07:10:44 07:14:46 19° 174° (S) 07:18:49 437.500
AUBIESAT-1 18 Apr 07:14:19 07:17:11 16° 265° (W) 07:19:55 437.475
JUGNU 18 Apr 07:17:22 07:21:28 20° 184° (S) 07:25:33 437.505
Cosmos 2499 18 Apr 07:20:19 07:28:16 71° 267° (W) 07:35:34 435.465 / 435.565
CUTE-I 18 Apr 07:25:50 07:31:08 73° 285° (WNW) 07:36:26 437.470
Cubesat XI-IV 18 Apr 07:32:55 07:38:10 61° 286° (WNW) 07:43:24 437.490
STRAND 1 18 Apr 07:42:58 07:47:46 40° 262° (W) 07:52:33 437.568
CUBESAT XI-V 18 Apr 07:46:03 07:49:04 16° 268° (W) 07:51:52 437.345
PCSat 18 Apr 08:36:18 08:36:33 10° 104° (ESE) 08:37:14 145.827
BRITE-PL 18 Apr 08:49:44 08:54:32 54° 100° (E) 08:59:43 437.365/2234.400
SRMSAT 18 Apr 08:59:06 09:03:18 20° 184° (S) 09:07:30 437.500
DOVE 4 18 Apr 08:59:31 09:03:49 29° 96° (E) 09:08:20 437.250
JUGNU 18 Apr 09:07:02 09:09:49 13° 193° (SSW) 09:12:30 437.505
CINEMA 3 18 Apr 09:09:05 09:12:19 18° 92° (E) 09:15:48 145.822/145.860
GOMX 1 18 Apr 09:19:56 09:24:54 73° 101° (E) 09:30:11 467.674
HO-68 18 Apr 09:20:32 09:27:35 57° 101° (E) 09:34:37 435.675
O/OREOS (USA 219) 18 Apr 09:27:04 09:30:40 24° 62° (ENE) 09:34:20 437.305
COMPASS 1 18 Apr 09:30:11 09:34:13 43° 99° (E) 09:38:12 437.405
CANX-2 18 Apr 09:36:41 09:41:00 88° 284° (WNW) 09:45:16 2200.000
SEEDS 18 Apr 09:42:23 09:46:40 80° 101° (ESE) 09:50:53 437.485
FUNcube-1 18 Apr 09:44:43 09:46:36 13° 90° (E) 09:48:46 145.935
CUTE 1.7 + AOD 2 18 Apr 09:47:09 09:51:26 73° 283° (WNW) 09:55:40 437.475
TIGRISAT 18 Apr 09:48:31 09:51:20 17° 69° (ENE) 09:54:23 435.000
UNISAT 6 18 Apr 09:48:49 09:51:46 18° 69° (ENE) 09:54:55 437.425
CUBEBUG 2 18 Apr 10:03:20 10:07:40 35° 97° (E) 10:12:03 437.445
UKube-1 18 Apr 10:04:35 10:05:40 11° 91° (E) 10:07:04 .
ZACube-1 18 Apr 10:05:13 10:08:49 23° 94° (E) 10:12:32 437.345
Cosmos 2491 18 Apr 10:08:48 10:16:29 34° 73° (ENE) 10:24:23 435.465 / 435.565
PCSat 18 Apr 10:13:59 10:19:24 80° 296° (WNW) 10:24:51 145.827
POLYITAN 1 18 Apr 10:19:09 10:21:59 18° 70° (ENE) 10:24:58 437.675
AAUSAT CUBESAT 2 18 Apr 10:19:47 10:23:52 51° 285° (WNW) 10:27:55 437.432
Oscar 11 18 Apr 10:23:39 10:28:01 73° 101° (E) 10:32:21 145.826/435.025
ANTELSAT 18 Apr 10:29:00 10:33:17 53° 75° (ENE) 10:37:43 437.575/2403.000
BRITE-PL 18 Apr 10:29:57 10:32:47 15° 290° (WNW) 10:35:28 437.365/2234.400
DUCHIFAT 1 18 Apr 10:30:03 10:33:21 23° 71° (ENE) 10:36:43 145.980
50 SAT 18 Apr 10:36:44 10:38:27 13° 91° (E) 10:40:24 437.505
DOVE 4 18 Apr 10:37:17 10:41:29 27° 288° (WNW) 10:45:44 437.250
QB50P1 18 Apr 10:41:37 10:45:21 33° 73° (ENE) 10:49:10 145.935-145.965
DX 1 18 Apr 10:43:16 10:47:17 36° 98° (E) 10:51:20 434.975-435.025
CINEMA 3 18 Apr 10:45:04 10:49:41 41° 286° (WNW) 10:54:21 145.822/145.860
UWE-3 18 Apr 10:46:49 10:51:31 90° 139° (SE) 10:56:12 435.000/436.395/437.385
DELFI C3 18 Apr 10:48:31 10:52:34 71° 284° (WNW) 10:56:34 145.870
SRMSAT 18 Apr 10:48:55 10:51:50 14° 193° (SSW) 10:54:39 437.500
GOMX 1 18 Apr 11:00:58 11:02:38 11° 292° (WNW) 11:03:59 467.674
BUGSAT 1 18 Apr 11:01:39 11:05:23 38° 74° (ENE) 11:09:09 437.445
QB50P2 18 Apr 11:04:11 11:08:21 66° 76° (ENE) 11:12:33 145.880/145.840
O/OREOS (USA 219) 18 Apr 11:06:20 11:10:02 25° 257° (WSW) 11:13:39 437.305
HUMSAT D 18 Apr 11:06:47 11:11:04 55° 100° (E) 11:15:19 437.325/437.525
COMPASS 1 18 Apr 11:07:32 11:09:33 13° 291° (WNW) 11:11:21 437.405
HO-68 18 Apr 11:09:17 11:14:54 24° 296° (WNW) 11:20:16 435.675
YUBILEINY 18 Apr 11:12:20 11:20:27 44° 89° (E) 11:28:42 435.215
VELOX 1 18 Apr 11:17:32 11:21:41 39° 98° (E) 11:25:51 145.980
FUNcube-1 18 Apr 11:18:48 11:23:15 49° 285° (WNW) 11:27:41 145.935
TIGRISAT 18 Apr 11:23:49 11:27:51 35° 263° (W) 11:31:56 435.000
UNISAT 6 18 Apr 11:24:19 11:28:19 33° 263° (W) 11:32:23 437.425
POPSAT HIP 1 18 Apr 11:27:36 11:31:46 64° 259° (W) 11:35:56 437.405
NANOSAT C BR1 18 Apr 11:28:14 11:32:22 63° 259° (W) 11:36:34 145.865
AISAT 18 Apr 11:31:49 11:36:14 62° 101° (E) 11:40:39 437.250
UKube-1 18 Apr 11:37:59 11:42:10 49° 286° (WNW) 11:46:21 .
CUBEBUG 2 18 Apr 11:40:39 11:44:08 20° 290° (WNW) 11:47:30 437.445
ZACube-1 18 Apr 11:41:13 11:45:10 28° 288° (WNW) 11:49:02 437.345
ESTCUBE 1 18 Apr 11:42:14 11:46:26 39° 98° (E) 11:50:39 437.505/2401.250
CUBEBUG 1 18 Apr 11:47:09 11:51:13 39° 98° (E) 11:55:19 437.445
POLYITAN 1 18 Apr 11:54:02 11:57:44 29° 264° (W) 12:01:24 437.675
PCSat 18 Apr 12:02:31 12:03:49 11° 315° (NW) 12:04:46 145.827
SPROUT 18 Apr 12:05:09 12:07:32 15° 92° (E) 12:10:08 437.525
Cosmos 2491 18 Apr 12:05:16 12:13:33 45° 270° (W) 12:21:42 435.465 / 435.565
DUCHIFAT 1 18 Apr 12:05:47 12:09:07 22° 265° (W) 12:12:22 145.980
TISAT 1 18 Apr 12:06:51 12:08:13 12° 91° (E) 12:09:49 437.305
ANTELSAT 18 Apr 12:09:13 12:10:31 11° 271° (W) 12:11:30 437.575/2403.000
50 SAT 18 Apr 12:09:44 12:13:30 37° 286° (WNW) 12:17:14 437.505
QB50P1 18 Apr 12:18:44 12:21:23 16° 267° (W) 12:23:50 145.935-145.965
DX 1 18 Apr 12:20:32 12:23:17 16° 291° (WNW) 12:25:51 434.975-435.025
BUGSAT 1 18 Apr 12:39:17 12:41:06 12° 268° (W) 12:42:40 437.445
HUMSAT D 18 Apr 12:45:05 12:46:23 11° 292° (WNW) 12:47:27 437.325/437.525
VELOX 1 18 Apr 12:55:16 12:57:58 16° 291° (WNW) 13:00:29 145.980
BEESAT 3 18 Apr 13:02:27 13:04:31 14° 48° (NE) 13:06:44 437.485
SO-50 18 Apr 13:08:15 13:12:37 47° 115° (ESE) 13:17:12 436.795
YUBILEINY 18 Apr 13:09:30 13:17:26 35° 287° (WNW) 13:25:12 435.215
AISAT 18 Apr 13:11:36 13:12:22 10° 293° (WNW) 13:12:52 437.250
Cosmos 2504 18 Apr 13:14:22 13:20:44 24° 84° (E) 13:27:34 435.465 / 435.565
Oscar 19 18 Apr 13:17:45 13:22:42 53° 74° (ENE) 13:27:45 437.125/150
Gurwin Techsat 1B 18 Apr 13:19:26 13:21:49 14° 66° (ENE) 13:24:31 435.225
AIST 1 18 Apr 13:19:33 13:23:46 67° 266° (W) 13:27:59
ESTCUBE 1 18 Apr 13:20:15 13:23:02 16° 291° (WNW) 13:25:37 437.505/2401.250
ISS 18 Apr 13:23:51 13:25:31 14° 128° (SE) 13:27:18 145.825
CUBEBUG 1 18 Apr 13:24:45 13:27:18 15° 291° (WNW) 13:29:41 437.445
RS-15 18 Apr 13:32:42 13:35:11 11° 101° (E) 13:38:54 29.354- 29.394
ITAMSAT 1 18 Apr 13:35:27 13:39:27 24° 69° (ENE) 13:43:34 435.822/435.867
SPROUT 18 Apr 13:39:49 13:43:48 36° 287° (WNW) 13:47:46 437.525
TISAT 1 18 Apr 13:40:14 13:44:18 45° 285° (WNW) 13:48:20 437.305
BEESAT 18 Apr 13:42:30 13:46:10 23° 95° (E) 13:49:58 436.000
SWISSCUBE 18 Apr 13:43:26 13:47:20 25° 96° (E) 13:51:17 437.505
BEESAT 2 18 Apr 14:29:45 14:33:53 77° 242° (WSW) 14:37:54 435.950
BEESAT 3 18 Apr 14:38:55 14:42:52 47° 245° (WSW) 14:46:43 437.485
AIST 2 18 Apr 14:40:44 14:44:43 40° 57° (ENE) 14:48:39 435.215
ITUPSAT 1 18 Apr 14:43:16 14:48:03 76° 283° (WNW) 14:52:47 437.325
SO-50 18 Apr 14:50:13 14:53:29 18° 312° (NW) 14:56:42 436.795
JAS-2 18 Apr 14:53:26 14:59:05 24° 65° (ENE) 15:05:03 435.910
Gurwin Techsat 1B 18 Apr 14:56:03 15:01:19 65° 259° (WSW) 15:06:37 435.225
ISS 18 Apr 14:58:32 15:01:39 41° 321° (NW) 15:04:45 145.825
Oscar 19 18 Apr 14:59:37 15:02:28 14° 269° (W) 15:05:03 437.125/150
Cosmos 2504 18 Apr 15:04:52 15:13:33 64° 280° (W) 15:22:22 435.465 / 435.565
ITAMSAT 1 18 Apr 15:14:04 15:18:48 35° 263° (W) 15:23:29 435.822/435.867
BEESAT 18 Apr 15:19:54 15:24:03 30° 289° (WNW) 15:28:07 436.000
SWISSCUBE 18 Apr 15:21:09 15:25:08 27° 289° (WNW) 15:29:02 437.505
HORYU 2 18 Apr 15:24:44 15:29:01 48° 74° (ENE) 15:33:22 437.375
AO-7 18 Apr 15:25:30 15:33:16 48° 67° (ENE) 15:41:08 29.400- 29.500
STARS 18 Apr 15:25:40 15:29:39 32° 97° (E) 15:33:40 437.465
RS-15 18 Apr 15:35:17 15:46:05 74° 115° (ESE) 15:57:03 29.354- 29.394
GONETS M04 18 Apr 15:41:44 15:42:20 10° 79° (E) 15:43:53
KKS-1 18 Apr 15:47:37 15:52:06 81° 283° (WNW) 15:56:35 437.445
AIST 2 18 Apr 16:20:37 16:23:00 14° 250° (WSW) 16:25:09 435.215
JAS-2 18 Apr 16:35:51 16:43:29 68° 259° (W) 16:51:20 435.910
MOZHAYETS 4 18 Apr 16:53:43 16:57:41 29° 96° (E) 17:01:42
STARS 18 Apr 17:02:44 17:05:54 19° 290° (WNW) 17:08:55 437.465
HORYU 2 18 Apr 17:04:02 17:06:00 12° 269° (W) 17:07:43 437.375
CUTE-I 18 Apr 17:07:05 17:09:31 14° 65° (ENE) 17:12:15 437.470
Cubesat XI-IV 18 Apr 17:13:32 17:16:38 16° 67° (ENE) 17:19:58 437.490
AO-7 18 Apr 17:18:58 17:26:17 33° 263° (W) 17:33:25 29.400- 29.500
GONETS M04 18 Apr 17:29:17 17:37:57 75° 94° (E) 17:46:45
RS-15 18 Apr 17:50:15 17:59:36 30° 318° (NW) 18:08:51 29.354- 29.394
DANDE 18 Apr 17:54:43 17:56:08 14° 89° (E) 17:57:48 436.750
Cosmos 2499 18 Apr 18:00:53 18:06:03 18° 83° (E) 18:11:47 435.465 / 435.565
CUSAT 1 18 Apr 18:05:22 18:07:59 35° 93° (E) 18:11:09 437.405
M-CUBED/EXP-1 PRIME 18 Apr 18:09:08 18:12:05 18° 96° (E) 18:15:01 437.505
CUBESAT XI-V 18 Apr 18:09:26 18:11:27 13° 91° (E) 18:13:44 437.345
MOZHAYETS 4 18 Apr 18:31:13 18:34:47 22° 290° (WNW) 18:38:12
CUTE-I 18 Apr 18:43:49 18:49:07 65° 259° (WSW) 18:54:25 437.470
Cubesat XI-IV 18 Apr 18:51:07 18:56:20 54° 260° (W) 19:01:35 437.490
PRISM 18 Apr 18:51:14 18:54:28 23° 96° (E) 18:57:45 437.425
AUBIESAT-1 18 Apr 18:57:54 19:02:13 66° 105° (ESE) 19:06:10 437.475
VERMONT LUNAR 18 Apr 19:02:30 19:05:35 33° 148° (SSE) 19:08:41 437.305
PCSat 18 Apr 19:06:05 19:11:02 36° 57° (ENE) 19:16:00 145.827
GONETS M04 18 Apr 19:29:41 19:35:51 20° 294° (WNW) 19:41:34
DANDE 18 Apr 19:38:35 19:39:26 11° 293° (WNW) 19:40:09 436.750
M-CUBED/EXP-1 PRIME 18 Apr 19:43:11 19:47:05 30° 293° (WNW) 19:50:39 437.505
CUBESAT XI-V 18 Apr 19:44:48 19:49:13 47° 286° (WNW) 19:53:37 437.345
HO-68 18 Apr 19:45:39 19:51:29 29° 65° (ENE) 19:57:31 435.675
Cosmos 2499 18 Apr 19:49:33 19:58:23 81° 277° (W) 20:07:16 435.465 / 435.565
PHONESAT 2.4 18 Apr 19:51:29 19:54:38 29° 147° (SSE) 19:57:49 2401.200-2431.200
STRAND 1 18 Apr 19:57:02 20:02:09 86° 280° (W) 20:07:15 437.568
BRITE-PL 18 Apr 19:58:04 20:01:49 34° 74° (ENE) 20:05:37 437.365/2234.400
DOVE 4 18 Apr 20:03:21 20:05:44 15° 69° (ENE) 20:08:20 437.250
RS-15 18 Apr 20:14:54 20:17:29 11° 352° (N) 20:19:52 29.354- 29.394
COMPASS 1 18 Apr 20:18:36 20:21:30 19° 71° (ENE) 20:24:33 437.405
GOMX 1 18 Apr 20:25:17 20:29:13 45° 74° (ENE) 20:33:14 467.674
CANX-2 18 Apr 20:25:48 20:29:46 39° 74° (ENE) 20:33:48 2200.000
PRISM 18 Apr 20:26:38 20:29:51 22° 289° (WNW) 20:32:58 437.425
SEEDS 18 Apr 20:30:49 20:34:36 33° 73° (ENE) 20:38:28 437.485
CUTE 1.7 + AOD 2 18 Apr 20:36:02 20:40:07 46° 75° (ENE) 20:44:16 437.475
VERMONT LUNAR 18 Apr 20:39:48 20:43:05 45° 342° (NNW) 20:46:21 437.305
PCSat 18 Apr 20:49:50 20:54:18 26° 252° (WSW) 20:58:36 145.827
CUBEBUG 2 18 Apr 20:59:09 21:01:54 18° 69° (ENE) 21:04:51 437.445
ZACube-1 18 Apr 20:59:59 21:01:03 11° 67° (ENE) 21:02:22 437.345
AAUSAT CUBESAT 2 18 Apr 21:06:25 21:10:34 62° 76° (ENE) 21:14:45 437.432
Oscar 11 18 Apr 21:14:46 21:18:39 34° 73° (ENE) 21:22:37 145.826/435.025
ISS 18 Apr 21:28:59 21:31:56 32° 37° (NE) 21:34:54 145.825
YUBILEINY 18 Apr 21:29:04 21:33:57 17° 65° (ENE) 21:39:25 435.215
PHONESAT 2.4 18 Apr 21:29:18 21:32:49 53° 340° (NNW) 21:36:20 2401.200-2431.200
HO-68 18 Apr 21:32:04 21:38:57 48° 260° (W) 21:45:50 435.675
DELFI C3 18 Apr 21:32:15 21:36:03 39° 74° (ENE) 21:39:54 145.870
DX 1 18 Apr 21:35:56 21:39:03 20° 70° (ENE) 21:42:18 434.975-435.025
BRITE-PL 18 Apr 21:38:22 21:40:35 14° 268° (W) 21:42:36 437.365/2234.400
DOVE 4 18 Apr 21:39:32 21:43:17 33° 263° (W) 21:47:05 437.250
UWE-3 18 Apr 21:40:23 21:44:23 43° 74° (ENE) 21:48:32 435.000/436.395/437.385
CINEMA 3 18 Apr 21:43:05 21:47:14 66° 259° (W) 21:51:33 145.822/145.860
SO-50 18 Apr 21:44:09 21:47:30 18° 48° (NE) 21:50:59 436.795
Cosmos 2499 18 Apr 21:48:35 21:53:08 14° 297° (WNW) 21:56:57 435.465 / 435.565
COMPASS 1 18 Apr 21:53:18 21:57:01 29° 264° (W) 22:00:42 437.405
HUMSAT D 18 Apr 21:55:32 21:58:47 23° 71° (ENE) 22:02:11 437.325/437.525
CANX-2 18 Apr 22:03:34 22:05:55 14° 269° (W) 22:08:04 2200.000
GOMX 1 18 Apr 22:06:54 22:07:45 10° 270° (W) 22:08:19 467.674
SEEDS 18 Apr 22:07:44 22:10:32 16° 268° (W) 22:13:10 437.485
FUNcube-1 18 Apr 22:10:31 22:14:44 79° 77° (ENE) 22:19:05 145.935
VELOX 1 18 Apr 22:12:06 22:15:28 23° 71° (ENE) 22:18:57 145.980
CUTE 1.7 + AOD 2 18 Apr 22:14:46 22:16:22 11° 270° (W) 22:17:41 437.475
VERMONT LUNAR 18 Apr 22:18:12 22:21:04 25° 358° (N) 22:23:56 437.305
ANTELSAT 18 Apr 22:26:07 22:29:00 16° 92° (E) 22:32:04 437.575/2403.000
AISAT 18 Apr 22:26:11 22:30:07 34° 73° (ENE) 22:34:06 437.250
UKube-1 18 Apr 22:28:40 22:32:59 82° 77° (ENE) 22:37:19 .
RS-15 18 Apr 22:29:55 22:36:48 18° 28° (NNE) 22:44:22 29.354- 29.394
ZACube-1 18 Apr 22:32:51 22:36:58 53° 261° (W) 22:41:13 437.345
CUBEBUG 2 18 Apr 22:34:35 22:38:23 31° 264° (W) 22:42:14 437.445
ESTCUBE 1 18 Apr 22:38:38 22:42:12 24° 71° (ENE) 22:45:52 437.505/2401.250
CUBEBUG 1 18 Apr 22:40:21 22:43:32 21° 71° (ENE) 22:46:51 437.445
50 SAT 18 Apr 22:50:57 22:54:53 69° 77° (ENE) 22:58:53 437.505
Oscar 11 18 Apr 22:52:06 22:54:58 17° 267° (W) 22:57:40 145.826/435.025
QB50P2 18 Apr 22:54:53 22:57:14 15° 92° (E) 22:59:48 145.880/145.840
Cosmos 2491 18 Apr 23:04:49 23:12:49 44° 89° (E) 23:20:59 435.465 / 435.565
ISS 18 Apr 23:05:52 23:08:09 18° 231° (SW) 23:10:22 145.825
PHONESAT 2.4 18 Apr 23:08:25 23:11:32 27° 357° (N) 23:14:37 2401.200-2431.200
DELFI C3 18 Apr 23:09:32 23:11:26 12° 269° (W) 23:13:06 145.870
DX 1 18 Apr 23:11:23 23:15:09 28° 263° (W) 23:18:52 434.975-435.025
POPSAT HIP 1 18 Apr 23:17:05 23:20:43 27° 96° (E) 23:24:24 437.405
NANOSAT C BR1 18 Apr 23:17:27 23:21:05 27° 96° (E) 23:24:46 145.865
TIGRISAT 18 Apr 23:18:51 23:23:33 65° 101° (E) 23:28:12 435.000
UWE-3 18 Apr 23:19:23 23:21:15 12° 270° (W) 23:22:54 435.000/436.395/437.385
UNISAT 6 18 Apr 23:19:34 23:24:17 68° 100° (E) 23:28:57 437.425
YUBILEINY 18 Apr 23:23:17 23:32:05 84° 264° (W) 23:40:47 435.215
SO-50 18 Apr 23:23:36 23:28:25 51° 245° (WSW) 23:33:07 436.795
HUMSAT D 18 Apr 23:31:10 23:34:30 22° 266° (W) 23:37:47 437.325/437.525
O/OREOS (USA 219) 18 Apr 23:34:33 23:39:02 58° 106° (ESE) 23:43:32 437.305
